,,PA_Meas_PMT16A,,PR_Meas_QMR101_102,,RH_Meas_QMH101,,SR_Meas_QMS101,,TA_Meas_QMH101,,GenWind,,GenWind,
time,status,PA,status,PR,status,RH,status,SR,status,TA,status,DirAvg,status,SpdAvg,
2012-07-24, 00:00:04,VALID,917.572,VALID,0,VALID,93.6384,VALID,0,VALID,20.504,VALID,305,VALID,0,
2012-07-24, 00:01:04,VALID,917.576,VALID,0,VALID,93.7375,VALID,0,VALID,20.543,VALID,305,VALID,0,
2012-07-24, 00:02:04,VALID,917.564,VALID,0,VALID,93.7756,VALID,0,VALID,20.5625,VALID,305,VALID,0,
2012-07-24, 00:03:04,VALID,917.598,VALID,0,VALID,93.4707,VALID,0,VALID,20.5625,VALID,305,VALID,0,
2012-07-24, 00:04:04,VALID,917.599,VALID,0,VALID,93.3487,VALID,0,VALID,20.543,VALID,305,VALID,0,
2012-07-24, 00:05:04,VALID,917.599,VALID,0,VALID,93.3564,VALID,0,VALID,20.543,VALID,305,VALID,0,
2012-07-24, 00:06:04,VALID,917.625,VALID,0,VALID,93.4478,VALID,0,VALID,20.543,VALID,305,VALID,0,
2012-07-24, 00:07:04,VALID,917.637,VALID,0,VALID,93.4021,VALID,0,VALID,20.5235,VALID,305,VALID,0,
2012-07-24, 00:08:04,VALID,917.648,VALID,0,VALID,93.4555,VALID,0,VALID,20.5235,VALID,305,VALID,0,
2012-07-24, 00:09:04,VALID,917.647,VALID,0,VALID,93.5546,VALID,0,VALID,20.5235,VALID,305,VALID,0,
2012-07-24, 00:10:04,VALID,917.621,VALID,0,VALID,93.646,VALID,0,VALID,20.5235,VALID,305,VALID,0,
2012-07-24, 00:11:04,VALID,917.629,VALID,0,VALID,93.646,VALID,0,VALID,20.5625,VALID,305,VALID,0,
2012-07-24, 00:12:04,VALID,917.601,VALID,0,VALID,93.5851,VALID,0,VALID,20.543,VALID,305,VALID,0,
2012-07-24, 00:13:04,VALID,917.588,VALID,0,VALID,93.6842,VALID,0.107441,VALID,20.5235,VALID,326,VALID,0,
2012-07-24, 00:14:04,VALID,917.591,VALID,0,VALID,93.7985,VALID,0,VALID,20.4845,VALID,21,VALID,0,
2012-07-24, 00:15:04,VALID,917.551,VALID,0,VALID,93.951,VALID,0,VALID,20.4845,VALID,21,VALID,0,
2012-07-24, 00:16:04,VALID,917.569,VALID,0,VALID,93.951,VALID,0,VALID,20.4845,VALID,21,VALID,0,
2012-07-24, 00:17:04,VALID,917.569,VALID,0,VALID,93.9052,VALID,0,VALID,20.4454,VALID,21,VALID,0,
2012-07-24, 00:18:04,VALID,917.545,VALID,0,VALID,93.9967,VALID,0,VALID,20.4049,VALID,21,VALID,0,
2012-07-24, 00:19:04,VALID,917.567,VALID,0,VALID,94.0272,VALID,0,VALID,20.4259,VALID,21,VALID,0,
2012-07-24, 00:20:04,VALID,917.546,VALID,0,VALID,94.0806,VALID,0,VALID,20.3854,VALID,21,VALID,0,
2012-07-24, 00:21:04,VALID,917.554,VALID,0,VALID,94.073,VALID,0,VALID,20.4259,VALID,21,VALID,0,
2012-07-24, 00:22:04,VALID,917.547,VALID,0,VALID,94.0272,VALID,0,VALID,20.3854,VALID,21,VALID,0,
2012-07-24, 00:23:04,VALID,917.539,VALID,0,VALID,94.0348,VALID,0.107441,VALID,20.3479,VALID,9,VALID,0,
2012-07-24, 00:24:04,VALID,917.481,VALID,0,VALID,94.0196,VALID,0,VALID,20.3479,VALID,5,VALID,0,
2012-07-24, 00:25:04,VALID,917.475,VALID,0,VALID,94.1492,VALID,0,VALID,20.3284,VALID,352,VALID,0,
2012-07-24, 00:26:04,VALID,917.472,VALID,0,VALID,94.2102,VALID,0,VALID,20.3089,VALID,351,VALID,0,
2012-07-24, 00:27:04,VALID,917.443,VALID,0,VALID,94.3779,VALID,0,VALID,20.2699,VALID,351,VALID,0,
2012-07-24, 00:28:04,VALID,917.471,VALID,0,VALID,94.599,VALID,0,VALID,20.2699,VALID,352,VALID,0,
2012-07-24, 00:29:04,VALID,917.453,VALID,0,VALID,94.8048,VALID,0,VALID,20.2894,VALID,351,VALID,0,
2012-07-24, 00:30:04,VALID,917.436,VALID,0,VALID,94.8658,VALID,0,VALID,20.3089,VALID,351,VALID,0,
2012-07-24, 00:31:04,VALID,917.445,VALID,0,VALID,94.8887,VALID,0,VALID,20.2894,VALID,351,VALID,0,
2012-07-24, 00:32:04,VALID,917.419,VALID,0,VALID,94.8277,VALID,0.107441,VALID,20.2894,VALID,351,VALID,0,
2012-07-24, 00:33:04,VALID,917.414,VALID,0,VALID,94.8658,VALID,0.107441,VALID,20.2894,VALID,351,VALID,0,
2012-07-24, 00:34:04,VALID,917.413,VALID,0,VALID,94.8048,VALID,0,VALID,20.2894,VALID,351,VALID,0,
2012-07-24, 00:35:04,VALID,917.41,VALID,0,VALID,94.7819,VALID,0,VALID,20.2699,VALID,351,VALID,0,
2012-07-24, 00:36:04,VALID,917.39,VALID,0,VALID,94.7972,VALID,0,VALID,20.2909,VALID,351,VALID,0,
2012-07-24, 00:37:04,VALID,917.384,VALID,0,VALID,94.7438,VALID,0,VALID,20.2699,VALID,351,VALID,0,
2012-07-24, 00:38:04,VALID,917.375,VALID,0,VALID,94.82,VALID,0,VALID,20.2309,VALID,343,VALID,0,
2012-07-24, 00:39:04,VALID,917.377,VALID,0,VALID,94.8505,VALID,0,VALID,20.2114,VALID,330,VALID,0,
2012-07-24, 00:40:04,VALID,917.375,VALID,0,VALID,94.82,VALID,0.107441,VALID,20.2114,VALID,331,VALID,0,
2012-07-24, 00:41:04,VALID,917.362,VALID,0,VALID,94.9192,VALID,0.214882,VALID,20.2098,VALID,342,VALID,0,
2012-07-24, 00:42:04,VALID,917.358,VALID,0,VALID,94.9649,VALID,0.107441,VALID,20.1708,VALID,342,VALID,0,
2012-07-24, 00:43:04,VALID,917.35,VALID,0,VALID,95.0106,VALID,0.107441,VALID,20.1708,VALID,342,VALID,0,
2012-07-24, 00:44:04,VALID,917.305,VALID,0,VALID,94.9496,VALID,0.107441,VALID,20.1513,VALID,342,VALID,0,
2012-07-24, 00:45:04,VALID,917.276,VALID,0,VALID,94.9878,VALID,0.107441,VALID,20.1708,VALID,342,VALID,0,
2012-07-24, 00:46:04,VALID,917.297,VALID,0,VALID,94.9268,VALID,0.107441,VALID,20.1708,VALID,342,VALID,0,
2012-07-24, 00:47:04,VALID,917.306,VALID,0,VALID,94.9115,VALID,0.107441,VALID,20.1708,VALID,342,VALID,0,
2012-07-24, 00:48:04,VALID,917.286,VALID,0,VALID,94.9496,VALID,0.107441,VALID,20.1513,VALID,342,VALID,0,
2012-07-24, 00:49:04,VALID,917.298,VALID,0,VALID,94.9725,VALID,0.107441,VALID,20.1318,VALID,342,VALID,0,
2012-07-24, 00:50:04,VALID,917.296,VALID,0,VALID,95.0183,VALID,0,VALID,20.1513,VALID,320,VALID,0,
2012-07-24, 00:51:04,VALID,917.317,VALID,0,VALID,95.0716,VALID,0.107441,VALID,20.1724,VALID,316,VALID,0,
2012-07-24, 00:52:04,VALID,917.278,VALID,0,VALID,95.0945,VALID,0.107441,VALID,20.1513,VALID,316,VALID,0,
2012-07-24, 00:53:04,VALID,917.281,VALID,0,VALID,95.1555,VALID,0.107441,VALID,20.1708,VALID,316,VALID,0,
2012-07-24, 00:54:04,VALID,917.252,VALID,0,VALID,95.1021,VALID,0.107441,VALID,20.1708,VALID,316,VALID,0,
2012-07-24, 00:55:04,VALID,917.255,VALID,0,VALID,95.1326,VALID,0.107441,VALID,20.1513,VALID,316,VALID,0,
2012-07-24, 00:56:04,VALID,917.236,VALID,0,VALID,95.2241,VALID,0,VALID,20.1318,VALID,316,VALID,0,
2012-07-24, 00:57:04,VALID,917.213,VALID,0,VALID,95.2088,VALID,0,VALID,20.1529,VALID,337,VALID,0,
2012-07-24, 00:58:04,VALID,917.23,VALID,0,VALID,95.2927,VALID,0,VALID,20.1529,VALID,337,VALID,0,
2012-07-24, 00:59:04,VALID,917.204,VALID,0,VALID,95.2775,VALID,0,VALID,20.1334,VALID,337,VALID,0,
2012-07-24, 01:00:04,VALID,917.182,VALID,0,VALID,95.0792,VALID,0,VALID,20.1139,VALID,337,VALID,0,
2012-07-24, 01:01:04,VALID,917.211,VALID,0,VALID,94.9801,VALID,0,VALID,20.0944,VALID,337,VALID,0,
2012-07-24, 01:02:04,VALID,917.192,VALID,0,VALID,94.7362,VALID,0,VALID,20.0553,VALID,337,VALID,0,
2012-07-24, 01:03:04,VALID,917.23,VALID,0,VALID,94.5304,VALID,0,VALID,20.0538,VALID,337,VALID,0,
2012-07-24, 01:04:04,VALID,917.227,VALID,0,VALID,94.2712,VALID,0,VALID,20.1154,VALID,337,VALID,0,
2012-07-24, 01:05:04,VALID,917.21,VALID,0,VALID,93.9891,VALID,0,VALID,20.1139,VALID,337,VALID,0,
2012-07-24, 01:06:04,VALID,917.213,VALID,0,VALID,93.8366,VALID,0,VALID,20.1334,VALID,337,VALID,0,
2012-07-24, 01:07:04,VALID,917.197,VALID,0,VALID,93.7833,VALID,0,VALID,20.1724,VALID,337,VALID,0,
2012-07-24, 01:08:04,VALID,917.161,VALID,0,VALID,93.6765,VALID,0,VALID,20.1934,VALID,337,VALID,0,
2012-07-24, 01:09:04,VALID,917.154,VALID,0,VALID,93.6308,VALID,0,VALID,20.1919,VALID,337,VALID,0,
2012-07-24, 01:10:04,VALID,917.147,VALID,0,VALID,93.6918,VALID,0,VALID,20.1919,VALID,337,VALID,0,
2012-07-24, 01:11:04,VALID,917.157,VALID,0,VALID,93.7833,VALID,0,VALID,20.2129,VALID,337,VALID,0,
2012-07-24, 01:12:04,VALID,917.152,VALID,0,VALID,93.8519,VALID,0,VALID,20.2129,VALID,337,VALID,0,
2012-07-24, 01:13:04,VALID,917.12,VALID,0,VALID,93.9434,VALID,0,VALID,20.2519,VALID,337,VALID,0,
2012-07-24, 01:14:04,VALID,917.132,VALID,0,VALID,94.0043,VALID,0,VALID,20.2309,VALID,337,VALID,0,
2012-07-24, 01:15:04,VALID,917.12,VALID,0,VALID,93.9738,VALID,0,VALID,20.2324,VALID,337,VALID,0,
2012-07-24, 01:16:04,VALID,917.124,VALID,0,VALID,93.9738,VALID,0,VALID,20.2114,VALID,337,VALID,0,
2012-07-24, 01:17:04,VALID,917.119,VALID,0,VALID,94.0348,VALID,0,VALID,20.2519,VALID,337,VALID,0,
2012-07-24, 01:18:04,VALID,917.14,VALID,0,VALID,94.0653,VALID,0,VALID,20.1919,VALID,337,VALID,0,
2012-07-24, 01:19:04,VALID,917.126,VALID,0,VALID,94.1797,VALID,0,VALID,20.1919,VALID,337,VALID,0,
2012-07-24, 01:20:04,VALID,917.128,VALID,0,VALID,94.233,VALID,0,VALID,20.1919,VALID,337,VALID,0,
2012-07-24, 01:21:04,VALID,917.127,VALID,0,VALID,94.233,VALID,0,VALID,20.1934,VALID,337,VALID,0,
2012-07-24, 01:22:04,VALID,917.134,VALID,0,VALID,94.2788,VALID,0,VALID,20.1934,VALID,337,VALID,0,
2012-07-24, 01:23:04,VALID,917.118,VALID,0,VALID,94.2712,VALID,0,VALID,20.1529,VALID,337,VALID,0,
2012-07-24, 01:24:04,VALID,917.126,VALID,0,VALID,94.3245,VALID,0,VALID,20.1724,VALID,337,VALID,0,
2012-07-24, 01:25:04,VALID,917.109,VALID,0,VALID,94.4008,VALID,0,VALID,20.1724,VALID,337,VALID,0,
2012-07-24, 01:26:04,VALID,917.063,VALID,0,VALID,94.4236,VALID,0,VALID,20.1919,VALID,337,VALID,0,
2012-07-24, 01:27:04,VALID,917.044,VALID,0,VALID,94.3855,VALID,0,VALID,20.2114,VALID,337,VALID,0,
2012-07-24, 01:28:04,VALID,917.074,VALID,0,VALID,94.3931,VALID,0,VALID,20.2129,VALID,337,VALID,0,
2012-07-24, 01:29:04,VALID,917.08,VALID,0,VALID,94.2026,VALID,0,VALID,20.1544,VALID,337,VALID,0,
2012-07-24, 01:30:04,VALID,917.107,VALID,0,VALID,94.2788,VALID,0,VALID,20.1349,VALID,337,VALID,0,
2012-07-24, 01:31:04,VALID,917.134,VALID,0,VALID,94.2864,VALID,0,VALID,20.0749,VALID,337,VALID,0,
2012-07-24, 01:32:04,VALID,917.129,VALID,0,VALID,94.3779,VALID,0,VALID,20.0163,VALID,337,VALID,0,
2012-07-24, 01:33:04,VALID,917.153,VALID,0,VALID,94.477,VALID,0,VALID,20.0179,VALID,337,VALID,0,
2012-07-24, 01:34:04,VALID,917.169,VALID,0,VALID,94.5913,VALID,0,VALID,19.9578,VALID,337,VALID,0,
2012-07-24, 01:35:04,VALID,917.138,VALID,0,VALID,94.6828,VALID,0,VALID,19.9593,VALID,337,VALID,0,
2012-07-24, 01:36:04,VALID,917.148,VALID,0,VALID,94.7972,VALID,0,VALID,19.9398,VALID,337,VALID,0,
2012-07-24, 01:37:04,VALID,917.142,VALID,0,VALID,94.9115,VALID,0,VALID,19.9203,VALID,337,VALID,0,
2012-07-24, 01:38:04,VALID,917.134,VALID,0,VALID,94.942,VALID,0,VALID,19.9008,VALID,337,VALID,0,
2012-07-24, 01:39:04,VALID,917.149,VALID,0,VALID,95.0106,VALID,0,VALID,19.8618,VALID,337,VALID,0,
2012-07-24, 01:40:04,VALID,917.172,VALID,0,VALID,95.0869,VALID,0,VALID,19.8423,VALID,337,VALID,0,
2012-07-24, 01:41:04,VALID,917.164,VALID,0,VALID,95.0564,VALID,0,VALID,19.8033,VALID,337,VALID,0,
2012-07-24, 01:42:04,VALID,917.163,VALID,0,VALID,95.0106,VALID,0,VALID,19.7643,VALID,337,VALID,0,
2012-07-24, 01:43:04,VALID,917.143,VALID,0,VALID,95.0716,VALID,0,VALID,19.7448,VALID,337,VALID,0,
2012-07-24, 01:44:04,VALID,917.103,VALID,0,VALID,95.064,VALID,0,VALID,19.6848,VALID,337,VALID,0,
2012-07-24, 01:45:04,VALID,917.14,VALID,0,VALID,95.1402,VALID,0,VALID,19.7058,VALID,337,VALID,0,
2012-07-24, 01:46:04,VALID,917.093,VALID,0,VALID,95.3003,VALID,0,VALID,19.6863,VALID,337,VALID,0,
2012-07-24, 01:47:04,VALID,917.1,VALID,0,VALID,95.3613,VALID,0,VALID,19.6863,VALID,337,VALID,0,
2012-07-24, 01:48:04,VALID,917.102,VALID,0,VALID,95.3384,VALID,0,VALID,19.6863,VALID,337,VALID,0,
2012-07-24, 01:49:04,VALID,917.079,VALID,0,VALID,95.4147,VALID,0,VALID,19.6863,VALID,337,VALID,0,
2012-07-24, 01:50:04,VALID,917.107,VALID,0,VALID,95.5062,VALID,0,VALID,19.6848,VALID,337,VALID,0,
2012-07-24, 01:51:04,VALID,917.1,VALID,0,VALID,95.4985,VALID,0,VALID,19.7253,VALID,337,VALID,0,
2012-07-24, 01:52:04,VALID,917.091,VALID,0,VALID,95.5214,VALID,0,VALID,19.7058,VALID,337,VALID,0,
2012-07-24, 01:53:04,VALID,917.097,VALID,0,VALID,95.4299,VALID,0,VALID,19.6668,VALID,337,VALID,0,
2012-07-24, 01:54:04,VALID,917.088,VALID,0,VALID,95.3613,VALID,0,VALID,19.6473,VALID,337,VALID,0,
2012-07-24, 01:55:04,VALID,917.06,VALID,0,VALID,95.3079,VALID,0,VALID,19.6083,VALID,337,VALID,0,
2012-07-24, 01:56:04,VALID,917.032,VALID,0,VALID,95.3461,VALID,0,VALID,19.5678,VALID,337,VALID,0,
2012-07-24, 01:57:04,VALID,917.028,VALID,0,VALID,95.3537,VALID,0,VALID,19.5678,VALID,337,VALID,0,
2012-07-24, 01:58:04,VALID,916.966,VALID,0,VALID,95.4833,VALID,0,VALID,19.5483,VALID,337,VALID,0,
2012-07-24, 01:59:04,VALID,916.965,VALID,0,VALID,95.5671,VALID,0,VALID,19.5483,VALID,337,VALID,0,
2012-07-24, 02:00:04,VALID,916.931,VALID,0,VALID,95.5671,VALID,0,VALID,19.5483,VALID,337,VALID,0,
2012-07-24, 02:01:04,VALID,916.902,VALID,0,VALID,95.6739,VALID,0,VALID,19.5678,VALID,337,VALID,0,
2012-07-24, 02:02:04,VALID,916.906,VALID,0,VALID,95.7501,VALID,0,VALID,19.5678,VALID,337,VALID,0,
2012-07-24, 02:03:04,VALID,916.876,VALID,0,VALID,95.7654,VALID,0,VALID,19.5483,VALID,337,VALID,0,
2012-07-24, 02:04:04,VALID,916.868,VALID,0,VALID,95.7882,VALID,0,VALID,19.5483,VALID,337,VALID,0,
2012-07-24, 02:05:04,VALID,916.85,VALID,0,VALID,95.7958,VALID,0,VALID,19.5093,VALID,337,VALID,0,
2012-07-24, 02:06:04,VALID,916.87,VALID,0,VALID,95.8035,VALID,0,VALID,19.5093,VALID,337,VALID,0,
2012-07-24, 02:07:04,VALID,916.852,VALID,0,VALID,95.8568,VALID,0,VALID,19.5303,VALID,337,VALID,0,
2012-07-24, 02:08:04,VALID,916.867,VALID,0,VALID,95.8873,VALID,0,VALID,19.5093,VALID,337,VALID,0,
2012-07-24, 02:09:04,VALID,916.858,VALID,0,VALID,95.9254,VALID,0,VALID,19.5303,VALID,337,VALID,0,
2012-07-24, 02:10:04,VALID,916.79,VALID,0,VALID,95.9483,VALID,0,VALID,19.5093,VALID,337,VALID,0,
2012-07-24, 02:11:04,VALID,916.8,VALID,0,VALID,96.0017,VALID,0,VALID,19.4898,VALID,337,VALID,0,
2012-07-24, 02:12:04,VALID,916.802,VALID,0,VALID,95.895,VALID,0,VALID,19.4703,VALID,337,VALID,0,
2012-07-24, 02:13:04,VALID,916.746,VALID,0,VALID,95.8568,VALID,0,VALID,19.4523,VALID,337,VALID,0,
2012-07-24, 02:14:04,VALID,916.714,VALID,0,VALID,95.9254,VALID,0,VALID,19.4327,VALID,337,VALID,0,
2012-07-24, 02:15:04,VALID,916.669,VALID,0,VALID,95.8111,VALID,0,VALID,19.3937,VALID,337,VALID,0,
2012-07-24, 02:16:04,VALID,916.62,VALID,0,VALID,95.5671,VALID,0,VALID,19.2558,VALID,337,VALID,0,
2012-07-24, 02:17:04,VALID,916.585,VALID,0,VALID,95.8035,VALID,0,VALID,19.2182,VALID,337,VALID,0,
2012-07-24, 02:18:04,VALID,916.582,VALID,0,VALID,95.9331,VALID,0,VALID,19.2377,VALID,337,VALID,0,
2012-07-24, 02:19:04,VALID,916.553,VALID,0,VALID,96.1084,VALID,0,VALID,19.2767,VALID,337,VALID,0,
2012-07-24, 02:20:04,VALID,916.52,VALID,0,VALID,95.9636,VALID,0,VALID,19.2572,VALID,337,VALID,0,
2012-07-24, 02:21:04,VALID,916.499,VALID,0,VALID,95.895,VALID,0,VALID,19.2182,VALID,337,VALID,0,
2012-07-24, 02:22:04,VALID,916.476,VALID,0,VALID,95.7806,VALID,0,VALID,19.1792,VALID,337,VALID,0,
2012-07-24, 02:23:04,VALID,916.505,VALID,0,VALID,95.8111,VALID,0,VALID,19.1402,VALID,337,VALID,0,
2012-07-24, 02:24:04,VALID,916.488,VALID,0,VALID,95.9559,VALID,0,VALID,19.1402,VALID,337,VALID,0,
2012-07-24, 02:25:04,VALID,916.476,VALID,0,VALID,95.8263,VALID,0,VALID,19.1207,VALID,337,VALID,0,
2012-07-24, 02:26:04,VALID,916.481,VALID,0,VALID,95.7882,VALID,0,VALID,19.0232,VALID,337,VALID,0,
2012-07-24, 02:27:04,VALID,916.494,VALID,0,VALID,95.9636,VALID,0,VALID,19.0232,VALID,337,VALID,0,
2012-07-24, 02:28:04,VALID,916.466,VALID,0,VALID,96.1618,VALID,0,VALID,19.0622,VALID,337,VALID,0,
2012-07-24, 02:29:04,VALID,916.447,VALID,0,VALID,96.2304,VALID,0,VALID,19.0817,VALID,337,VALID,0,
2012-07-24, 02:30:04,VALID,916.418,VALID,0,VALID,96.2533,VALID,0,VALID,19.0622,VALID,337,VALID,0,
2012-07-24, 02:31:04,VALID,916.389,VALID,0,VALID,96.2837,VALID,0,VALID,19.0427,VALID,337,VALID,0,
2012-07-24, 02:32:04,VALID,916.368,VALID,0,VALID,96.3295,VALID,0,VALID,19.0232,VALID,337,VALID,0,
2012-07-24, 02:33:04,VALID,916.373,VALID,0,VALID,96.3295,VALID,0,VALID,19.0232,VALID,337,VALID,0,
2012-07-24, 02:34:04,VALID,916.37,VALID,0,VALID,96.4667,VALID,0,VALID,19.0218,VALID,337,VALID,0,
2012-07-24, 02:35:04,VALID,916.386,VALID,0,VALID,96.4286,VALID,0,VALID,19.0232,VALID,337,VALID,0,
2012-07-24, 02:36:04,VALID,916.392,VALID,0,VALID,96.4438,VALID,0,VALID,18.9647,VALID,337,VALID,0,
2012-07-24, 02:37:04,VALID,916.381,VALID,0,VALID,96.5353,VALID,0,VALID,18.9438,VALID,337,VALID,0,
2012-07-24, 02:38:04,VALID,916.413,VALID,0,VALID,96.5963,VALID,0,VALID,18.9452,VALID,337,VALID,0,
2012-07-24, 02:39:04,VALID,916.4,VALID,0,VALID,96.6878,VALID,0,VALID,18.9842,VALID,337,VALID,0,
2012-07-24, 02:40:04,VALID,916.399,VALID,0,VALID,96.764,VALID,0,VALID,19.0037,VALID,337,VALID,0,
2012-07-24, 02:41:04,VALID,916.42,VALID,0,VALID,96.825,VALID,0,VALID,19.0218,VALID,337,VALID,0,
2012-07-24, 02:42:04,VALID,916.442,VALID,0,VALID,96.8631,VALID,0,VALID,19.0817,VALID,337,VALID,0,
2012-07-24, 02:43:04,VALID,916.448,VALID,0,VALID,96.8631,VALID,0,VALID,19.1012,VALID,337,VALID,0,
2012-07-24, 02:44:04,VALID,916.444,VALID,0,VALID,96.886,VALID,0,VALID,19.1012,VALID,337,VALID,0,
2012-07-24, 02:45:04,VALID,916.45,VALID,0,VALID,96.8631,VALID,0,VALID,19.1012,VALID,337,VALID,0,
2012-07-24, 02:46:04,VALID,916.448,VALID,0,VALID,96.886,VALID,0,VALID,19.1207,VALID,337,VALID,0,
2012-07-24, 02:47:04,VALID,916.418,VALID,0,VALID,96.8555,VALID,0,VALID,19.1402,VALID,337,VALID,0,
2012-07-24, 02:48:04,VALID,916.401,VALID,0,VALID,96.8631,VALID,0,VALID,19.1207,VALID,337,VALID,0,
2012-07-24, 02:49:04,VALID,916.393,VALID,0,VALID,96.8707,VALID,0,VALID,19.1207,VALID,337,VALID,0,
2012-07-24, 02:50:04,VALID,916.397,VALID,0,VALID,96.8555,VALID,0,VALID,19.1207,VALID,337,VALID,0,
2012-07-24, 02:51:04,VALID,916.371,VALID,0,VALID,96.8098,VALID,0,VALID,19.1222,VALID,337,VALID,0,
2012-07-24, 02:52:04,VALID,916.357,VALID,0,VALID,96.8707,VALID,0,VALID,19.1222,VALID,337,VALID,0,
2012-07-24, 02:53:04,VALID,916.347,VALID,0,VALID,96.886,VALID,0,VALID,19.1012,VALID,337,VALID,0,
2012-07-24, 02:54:04,VALID,916.328,VALID,0,VALID,96.8784,VALID,0,VALID,19.0622,VALID,337,VALID,0,
2012-07-24, 02:55:04,VALID,916.373,VALID,0,VALID,96.9165,VALID,0,VALID,19.0817,VALID,337,VALID,0,
2012-07-24, 02:56:04,VALID,916.34,VALID,0,VALID,96.9775,VALID,0,VALID,19.1012,VALID,337,VALID,0,
2012-07-24, 02:57:04,VALID,916.339,VALID,0,VALID,96.9546,VALID,0,VALID,19.1222,VALID,337,VALID,0,
2012-07-24, 02:58:04,VALID,916.334,VALID,0,VALID,96.9622,VALID,0,VALID,19.1012,VALID,337,VALID,0,
2012-07-24, 02:59:04,VALID,916.304,VALID,0,VALID,96.9698,VALID,0,VALID,19.0817,VALID,337,VALID,0,
2012-07-24, 03:00:04,VALID,916.281,VALID,0,VALID,96.9851,VALID,0,VALID,19.1012,VALID,337,VALID,0,
2012-07-24, 03:01:04,VALID,916.291,VALID,0,VALID,96.9089,VALID,0,VALID,19.0622,VALID,337,VALID,0,
2012-07-24, 03:02:04,VALID,916.272,VALID,0,VALID,96.9241,VALID,0,VALID,19.0232,VALID,337,VALID,0,
2012-07-24, 03:03:04,VALID,916.264,VALID,0,VALID,96.9927,VALID,0,VALID,19.0232,VALID,337,VALID,0,
2012-07-24, 03:04:04,VALID,916.233,VALID,0,VALID,96.9851,VALID,0,VALID,19.0427,VALID,337,VALID,0,
2012-07-24, 03:05:04,VALID,916.253,VALID,0,VALID,96.9546,VALID,0,VALID,19.0037,VALID,337,VALID,0,
2012-07-24, 03:06:04,VALID,916.226,VALID,0,VALID,96.9089,VALID,0,VALID,18.9857,VALID,337,VALID,0,
2012-07-24, 03:07:04,VALID,916.224,VALID,0,VALID,96.9241,VALID,0,VALID,18.9257,VALID,337,VALID,0,
2012-07-24, 03:08:04,VALID,916.188,VALID,0,VALID,96.886,VALID,0,VALID,18.9077,VALID,337,VALID,0,
2012-07-24, 03:09:04,VALID,916.165,VALID,0,VALID,96.9546,VALID,0,VALID,18.8672,VALID,337,VALID,0,
2012-07-24, 03:10:04,VALID,916.183,VALID,0,VALID,96.9546,VALID,0,VALID,18.8477,VALID,337,VALID,0,
2012-07-24, 03:11:04,VALID,916.188,VALID,0,VALID,96.9775,VALID,0.107441,VALID,18.8463,VALID,337,VALID,0,
2012-07-24, 03:12:04,VALID,916.198,VALID,0,VALID,97.1071,VALID,0,VALID,18.9062,VALID,336,VALID,0,
2012-07-24, 03:13:04,VALID,916.23,VALID,0,VALID,97.1299,VALID,0,VALID,18.9243,VALID,337,VALID,0,
2012-07-24, 03:14:04,VALID,916.217,VALID,0,VALID,97.1147,VALID,0,VALID,18.9438,VALID,336,VALID,0,
2012-07-24, 03:15:04,VALID,916.228,VALID,0,VALID,97.0537,VALID,0,VALID,18.9048,VALID,337,VALID,0,
2012-07-24, 03:16:04,VALID,916.236,VALID,0,VALID,97.0766,VALID,0,VALID,18.8853,VALID,336,VALID,0,
2012-07-24, 03:17:04,VALID,916.243,VALID,0,VALID,97.0842,VALID,0,VALID,18.9062,VALID,336,VALID,0,
2012-07-24, 03:18:04,VALID,916.216,VALID,0,VALID,97.1299,VALID,0,VALID,18.8853,VALID,336,VALID,0,
2012-07-24, 03:19:04,VALID,916.234,VALID,0,VALID,97.1147,VALID,0,VALID,18.9048,VALID,336,VALID,0,
2012-07-24, 03:20:04,VALID,916.228,VALID,0,VALID,97.1223,VALID,0.107441,VALID,18.9243,VALID,336,VALID,0,
2012-07-24, 03:21:04,VALID,916.245,VALID,0,VALID,97.1757,VALID,0,VALID,18.9647,VALID,336,VALID,0,
2012-07-24, 03:22:04,VALID,916.248,VALID,0,VALID,97.1681,VALID,0,VALID,18.9438,VALID,336,VALID,0,
2012-07-24, 03:23:04,VALID,916.259,VALID,0,VALID,97.1528,VALID,0,VALID,18.9243,VALID,336,VALID,0,
2012-07-24, 03:24:04,VALID,916.236,VALID,0,VALID,97.1757,VALID,0.107441,VALID,18.9452,VALID,336,VALID,0,
2012-07-24, 03:25:04,VALID,916.233,VALID,0,VALID,97.1604,VALID,0.107441,VALID,18.9452,VALID,336,VALID,0,
2012-07-24, 03:26:04,VALID,916.247,VALID,0,VALID,97.1833,VALID,0,VALID,18.9243,VALID,336,VALID,0,
2012-07-24, 03:27:04,VALID,916.227,VALID,0,VALID,97.1833,VALID,0,VALID,18.9243,VALID,336,VALID,0,
2012-07-24, 03:28:04,VALID,916.247,VALID,0,VALID,97.1833,VALID,0,VALID,18.9257,VALID,337,VALID,0,
2012-07-24, 03:29:04,VALID,916.231,VALID,0,VALID,97.1833,VALID,0,VALID,18.9062,VALID,336,VALID,0,
2012-07-24, 03:30:04,VALID,916.216,VALID,0,VALID,97.1833,VALID,0,VALID,18.8658,VALID,337,VALID,0,
2012-07-24, 03:31:04,VALID,916.242,VALID,0,VALID,97.1757,VALID,0.107441,VALID,18.8658,VALID,336,VALID,0,
2012-07-24, 03:32:04,VALID,916.252,VALID,0,VALID,97.1757,VALID,0.107441,VALID,18.8463,VALID,336,VALID,0,
2012-07-24, 03:33:04,VALID,916.286,VALID,0,VALID,97.1833,VALID,0.107441,VALID,18.8463,VALID,337,VALID,0,
2012-07-24, 03:34:04,VALID,916.28,VALID,0,VALID,97.1909,VALID,0.107441,VALID,18.8463,VALID,337,VALID,0,
2012-07-24, 03:35:04,VALID,916.301,VALID,0,VALID,97.2138,VALID,0,VALID,18.8268,VALID,336,VALID,0,
2012-07-24, 03:36:04,VALID,916.289,VALID,0,VALID,97.229,VALID,0,VALID,18.8463,VALID,336,VALID,0,
2012-07-24, 03:37:04,VALID,916.259,VALID,0,VALID,97.2443,VALID,0,VALID,18.8672,VALID,337,VALID,0,
2012-07-24, 03:38:04,VALID,916.25,VALID,0,VALID,97.2443,VALID,0.107441,VALID,18.8672,VALID,336,VALID,0,
2012-07-24, 03:39:04,VALID,916.23,VALID,0,VALID,97.2672,VALID,0,VALID,18.8463,VALID,336,VALID,0,
2012-07-24, 03:40:04,VALID,916.202,VALID,0,VALID,97.2519,VALID,0.107441,VALID,18.8672,VALID,337,VALID,0,
2012-07-24, 03:41:04,VALID,916.209,VALID,0,VALID,97.2748,VALID,0,VALID,18.8672,VALID,336,VALID,0,
2012-07-24, 03:42:04,VALID,916.203,VALID,0,VALID,97.2824,VALID,0.107441,VALID,18.8463,VALID,336,VALID,0,
2012-07-24, 03:43:04,VALID,916.206,VALID,0,VALID,97.2672,VALID,0,VALID,18.8463,VALID,336,VALID,0,
2012-07-24, 03:44:04,VALID,916.248,VALID,0,VALID,97.2595,VALID,0,VALID,18.8672,VALID,337,VALID,0,
2012-07-24, 03:45:04,VALID,916.215,VALID,0,VALID,97.2672,VALID,0.107441,VALID,18.8463,VALID,336,VALID,0,
2012-07-24, 03:46:04,VALID,916.249,VALID,0,VALID,97.2672,VALID,0.107441,VALID,18.8853,VALID,336,VALID,0,
2012-07-24, 03:47:04,VALID,916.252,VALID,0,VALID,97.2824,VALID,0.107441,VALID,18.8449,VALID,337,VALID,0,
2012-07-24, 03:48:04,VALID,916.282,VALID,0,VALID,97.29,VALID,0.107441,VALID,18.8867,VALID,336,VALID,0,
2012-07-24, 03:49:04,VALID,916.267,VALID,0,VALID,97.29,VALID,0.107441,VALID,18.8658,VALID,337,VALID,0,
2012-07-24, 03:50:04,VALID,916.263,VALID,0,VALID,97.3053,VALID,0,VALID,18.8853,VALID,337,VALID,0,
2012-07-24, 03:51:04,VALID,916.217,VALID,0,VALID,97.3129,VALID,0,VALID,18.9048,VALID,336,VALID,0,
2012-07-24, 03:52:04,VALID,916.215,VALID,0,VALID,97.3281,VALID,0,VALID,18.9243,VALID,336,VALID,0,
2012-07-24, 03:53:04,VALID,916.182,VALID,0,VALID,97.3205,VALID,0.107441,VALID,18.9438,VALID,336,VALID,0,
2012-07-24, 03:54:04,VALID,916.197,VALID,0,VALID,97.3281,VALID,0,VALID,18.9438,VALID,336,VALID,0,
2012-07-24, 03:55:04,VALID,916.208,VALID,0,VALID,97.3358,VALID,0,VALID,18.9842,VALID,336,VALID,0,
2012-07-24, 03:56:04,VALID,916.188,VALID,0,VALID,97.351,VALID,0,VALID,18.9647,VALID,336,VALID,0,
2012-07-24, 03:57:04,VALID,916.216,VALID,0,VALID,97.3281,VALID,0,VALID,18.9662,VALID,336,VALID,0,